GIA1 WAMM-WAJJ

Flight info

Callsign GIA1
Flight time N/A
Altitude 37000
Route HALMO DCT BIK DCT GUKIR DCT VANKA
Aircraft B77W/H-SDE1E2E3FGHIJ2J3J4J5M1RWXY/LB1D1

Departure

Time 2026-04-18 16:23
Airport Sam Ratulangi International Airport (WAMM)

Arrival

Time N/A
Airport Dortheys Hiyo Eluay International Airport (WAJJ)
Time Latitude Longitude Altitude Speed Heading
2026-04-18 16:08 1.54309 124.92356 341 ft 0 kts 310°
2026-04-18 16:14 1.54309 124.92355 341 ft 0 kts 310°
2026-04-18 16:14 1.54305 124.92359 341 ft 2 kts 310°
2026-04-18 16:14 1.54295 124.92374 336 ft 3 kts 284°
2026-04-18 16:15 1.54303 124.92408 336 ft 3 kts 215°
2026-04-18 16:15 1.54320 124.92415 336 ft 3 kts 180°
2026-04-18 16:15 1.54322 124.92416 336 ft 1 kts 172°
2026-04-18 16:16 1.54287 124.92416 352 ft 12 kts 180°
2026-04-18 16:16 1.54197 124.92415 349 ft 13 kts 180°
2026-04-18 16:16 1.54105 124.92413 341 ft 13 kts 183°
2026-04-18 16:16 1.54014 124.92408 338 ft 13 kts 180°
2026-04-18 16:17 1.53923 124.92408 337 ft 13 kts 178°
2026-04-18 16:17 1.53831 124.92416 340 ft 13 kts 173°
2026-04-18 16:17 1.53756 124.92458 335 ft 13 kts 114°
2026-04-18 16:17 1.53750 124.92549 339 ft 13 kts 69°
2026-04-18 16:18 1.53797 124.92587 350 ft 13 kts 18°
2026-04-18 16:18 1.53834 124.92592 349 ft 0 kts
2026-04-18 16:23 1.54217 124.92605 338 ft 118 kts
2026-04-18 16:23 1.55432 124.92642 463 ft 223 kts
2026-04-18 16:23 1.58620 124.92245 2939 ft 243 kts 346°
2026-04-18 16:24 1.60303 124.91807 3542 ft 259 kts 347°
2026-04-18 16:24 1.62082 124.91365 4281 ft 268 kts 346°
2026-04-18 16:24 1.63925 124.90933 5116 ft 275 kts 346°
2026-04-18 16:24 1.65801 124.90504 5966 ft 279 kts 347°
2026-04-18 16:25 1.67745 124.90410 6594 ft 287 kts 12°
2026-04-18 16:25 1.69591 124.91170 7298 ft 288 kts 28°
2026-04-18 16:25 1.71367 124.92135 8101 ft 292 kts 28°
2026-04-18 16:25 1.73149 124.93081 8919 ft 295 kts 26°
2026-04-18 16:26 1.75008 124.93991 9710 ft 300 kts 25°
2026-04-18 16:26 1.76908 124.94894 10401 ft 307 kts 25°
2026-04-18 16:26 1.78911 124.95857 10661 ft 333 kts 25°
2026-04-18 16:26 1.81080 124.96922 10856 ft 360 kts 26°
2026-04-18 16:27 1.83349 124.98096 11320 ft 372 kts 31°
2026-04-18 16:27 1.85310 124.99827 11883 ft 385 kts 54°
2026-04-18 16:27 1.86367 125.02280 12790 ft 389 kts 80°
2026-04-18 16:27 1.86338 125.04975 13726 ft 392 kts 102°
2026-04-18 16:28 1.85420 125.07546 14491 ft 394 kts 117°
2026-04-18 16:28 1.84105 125.09975 15136 ft 399 kts 121°
2026-04-18 16:28 1.82724 125.12381 15622 ft 401 kts 121°
2026-04-18 16:28 1.81382 125.14845 15948 ft 406 kts 118°
2026-04-18 16:29 1.80099 125.17389 16567 ft 412 kts 118°
2026-04-18 16:29 1.78808 125.19952 17473 ft 413 kts 118°
2026-04-18 16:29 1.77477 125.22510 18300 ft 417 kts 120°
2026-04-18 16:29 1.76078 125.25073 18940 ft 422 kts 120°
2026-04-18 16:30 1.74635 125.27648 19610 ft 427 kts 121°
2026-04-18 16:30 1.73187 125.30208 20284 ft 431 kts 121°
2026-04-18 16:30 1.71706 125.32829 20942 ft 436 kts 121°
2026-04-18 16:30 1.70211 125.35484 21574 ft 440 kts 120°
2026-04-18 16:31 1.68707 125.38171 22208 ft 445 kts 120°
2026-04-18 16:31 1.67193 125.40886 22816 ft 450 kts 120°
2026-04-18 16:31 1.66082 125.42883 23268 ft 453 kts 120°
2026-04-18 16:31 1.65029 125.44776 23640 ft 456 kts 120°
2026-04-18 16:32 1.63963 125.46697 23991 ft 459 kts 120°
2026-04-18 16:32 1.62903 125.48605 24353 ft 460 kts 120°
2026-04-18 16:32 1.61953 125.50317 24693 ft 462 kts 120°
2026-04-18 16:32 1.60993 125.52046 25026 ft 463 kts 120°
2026-04-18 16:33 1.60027 125.53786 25378 ft 464 kts 120°
2026-04-18 16:33 1.59179 125.55314 25649 ft 465 kts 120°
2026-04-18 16:33 1.58301 125.56894 25948 ft 467 kts 120°
2026-04-18 16:33 1.57546 125.58254 26188 ft 468 kts 120°
2026-04-18 16:34 1.56889 125.59437 26389 ft 469 kts 121°
2026-04-18 16:34 1.56117 125.60825 26636 ft 471 kts 121°
2026-04-18 16:34 1.55446 125.62032 26845 ft 472 kts 121°
2026-04-18 16:34 1.54713 125.63350 27071 ft 473 kts 121°
2026-04-18 16:35 1.53994 125.64644 27293 ft 475 kts 121°
2026-04-18 16:35 1.53393 125.65724 27463 ft 476 kts 121°
2026-04-18 16:35 1.52678 125.67009 27692 ft 477 kts 121°
2026-04-18 16:35 1.51953 125.68312 27905 ft 478 kts 121°
2026-04-18 16:36 1.51269 125.69542 28115 ft 479 kts 121°
2026-04-18 16:36 1.50568 125.70801 28318 ft 481 kts 121°
2026-04-18 16:36 1.49925 125.71958 28492 ft 482 kts 121°
2026-04-18 16:36 1.49167 125.73320 28703 ft 483 kts 121°
2026-04-18 16:37 1.48521 125.74482 28877 ft 484 kts 121°
2026-04-18 16:37 1.47870 125.75651 29055 ft 485 kts 121°
2026-04-18 16:37 1.47220 125.76818 29220 ft 487 kts 121°
2026-04-18 16:37 1.46583 125.77963 29402 ft 488 kts 121°
2026-04-18 16:38 1.45939 125.79121 29565 ft 489 kts 121°
2026-04-18 16:38 1.45284 125.80298 29742 ft 490 kts 121°
2026-04-18 16:38 1.44627 125.81480 29905 ft 491 kts 121°
2026-04-18 16:38 1.43960 125.82679 30050 ft 492 kts 121°
2026-04-18 16:39 1.43437 125.83619 30153 ft 493 kts 121°
2026-04-18 16:39 1.42780 125.84800 30278 ft 494 kts 121°
2026-04-18 16:39 1.42185 125.85869 30415 ft 495 kts 121°
2026-04-18 16:39 1.41582 125.86953 30528 ft 495 kts 121°
2026-04-18 16:40 1.40953 125.88082 30674 ft 495 kts 121°
2026-04-18 16:40 1.40358 125.89151 30807 ft 496 kts 121°
2026-04-18 16:40 1.39829 125.90103 30934 ft 496 kts 121°
2026-04-18 16:40 1.39140 125.91339 31112 ft 495 kts 121°
2026-04-18 16:41 1.38046 125.93307 31441 ft 494 kts 121°
2026-04-18 16:41 1.37408 125.94452 31632 ft 492 kts 120°
2026-04-18 16:41 1.36809 125.95529 31831 ft 491 kts 120°
2026-04-18 16:42 1.36255 125.96526 32024 ft 490 kts 120°
2026-04-18 16:42 1.35702 125.97520 32206 ft 489 kts 120°
2026-04-18 16:42 1.35147 125.98517 32399 ft 487 kts 120°
2026-04-18 16:42 1.34589 125.99519 32588 ft 486 kts 120°
2026-04-18 16:43 1.34119 126.00364 32748 ft 485 kts 120°
2026-04-18 16:43 1.33581 126.01332 32921 ft 484 kts 120°
2026-04-18 16:43 1.33035 126.02314 33117 ft 483 kts 120°
2026-04-18 16:43 1.32501 126.03273 33286 ft 482 kts 120°
2026-04-18 16:44 1.32078 126.04033 33448 ft 481 kts 120°
2026-04-18 16:44 1.31530 126.05019 33638 ft 480 kts 120°
2026-04-18 16:44 1.30979 126.06009 33822 ft 479 kts 120°
2026-04-18 16:44 1.30449 126.06962 33997 ft 478 kts 120°
2026-04-18 16:45 1.30038 126.07701 34120 ft 477 kts 120°
2026-04-18 16:45 1.29509 126.08652 34276 ft 476 kts 120°
2026-04-18 16:45 1.29122 126.09347 34393 ft 475 kts 120°
2026-04-18 16:45 1.28573 126.10335 34551 ft 474 kts 120°
2026-04-18 16:46 1.28036 126.11299 34724 ft 473 kts 120°
2026-04-18 16:46 1.27517 126.12232 34854 ft 472 kts 120°
2026-04-18 16:46 1.27101 126.12981 34971 ft 472 kts 120°
2026-04-18 16:47 1.26144 126.14701 35229 ft 471 kts 120°
2026-04-18 16:47 1.25174 126.16444 35487 ft 469 kts 120°
2026-04-18 16:47 1.24683 126.17328 35616 ft 469 kts 120°
2026-04-18 16:48 1.24226 126.18150 35741 ft 468 kts 120°
2026-04-18 16:48 1.23449 126.19550 35947 ft 467 kts 120°
2026-04-18 16:48 1.22900 126.20538 36092 ft 467 kts 119°
2026-04-18 16:49 1.22491 126.21276 36211 ft 466 kts 119°
2026-04-18 16:49 1.22115 126.21953 36316 ft 465 kts 119°
2026-04-18 16:49 1.21683 126.22732 36442 ft 464 kts 119°
2026-04-18 16:49 1.21147 126.23698 36594 ft 463 kts 119°
2026-04-18 16:50 1.20770 126.24376 36730 ft 462 kts 119°
2026-04-18 16:50 1.19943 126.25865 36924 ft 462 kts 119°
2026-04-18 16:51 1.18972 126.27616 36934 ft 466 kts 119°
2026-04-18 16:51 1.18161 126.29075 36889 ft 468 kts 119°
2026-04-18 16:52 1.17216 126.30779 36891 ft 469 kts 119°
2026-04-18 16:52 1.16499 126.32069 36899 ft 468 kts 119°
2026-04-18 16:53 1.15684 126.33539 36887 ft 468 kts 119°
2026-04-18 16:53 1.14880 126.34989 36879 ft 467 kts 119°
2026-04-18 16:54 1.14023 126.36534 36880 ft 465 kts 119°
2026-04-18 16:54 1.13110 126.38179 36876 ft 464 kts 119°
2026-04-18 16:55 1.12347 126.39556 36877 ft 462 kts 119°
2026-04-18 16:55 1.10122 126.43566 36886 ft 460 kts 119°
2026-04-18 16:56 1.07033 126.49129 36890 ft 459 kts 119°
2026-04-18 16:56 1.03424 126.55631 36893 ft 459 kts 119°
2026-04-18 16:56 1.00762 126.61357 36834 ft 454 kts 103°
2026-04-18 16:57 0.99688 126.67586 36930 ft 457 kts 99°
2026-04-18 16:57 0.97578 126.77312 36913 ft 467 kts 105°
2026-04-18 16:58 0.95925 126.83595 36897 ft 468 kts 105°
2026-04-18 16:58 0.94368 126.89908 36889 ft 467 kts 104°
2026-04-18 16:59 0.92897 126.96225 36890 ft 466 kts 103°
2026-04-18 16:59 0.91481 127.02413 36892 ft 465 kts 104°
2026-04-18 17:00 0.90038 127.08702 36891 ft 463 kts 103°
2026-04-18 17:00 0.88594 127.14961 36894 ft 461 kts 103°
2026-04-18 17:01 0.87152 127.21196 36896 ft 460 kts 103°
2026-04-18 17:01 0.85712 127.27420 36893 ft 459 kts 103°
2026-04-18 17:02 0.84275 127.33635 36896 ft 459 kts 104°
2026-04-18 17:02 0.82849 127.39802 36902 ft 459 kts 103°
2026-04-18 17:03 0.81411 127.46023 36903 ft 459 kts 103°
2026-04-18 17:03 0.79974 127.52243 36908 ft 460 kts 104°
2026-04-18 17:04 0.78534 127.58468 36901 ft 460 kts 104°
2026-04-18 17:04 0.77096 127.64686 36907 ft 459 kts 104°
2026-04-18 17:05 0.75658 127.70904 36910 ft 459 kts 104°
2026-04-18 17:05 0.74221 127.77121 36917 ft 459 kts 104°
2026-04-18 17:06 0.72784 127.83332 36917 ft 459 kts 104°
2026-04-18 17:06 0.71350 127.89534 36913 ft 458 kts 104°
2026-04-18 17:07 0.69926 127.95685 36920 ft 457 kts 104°
2026-04-18 17:07 0.68518 128.01777 36912 ft 457 kts 104°
2026-04-18 17:08 0.63328 128.24208 36909 ft 458 kts 104°
2026-04-18 17:08 0.57595 128.48981 36901 ft 457 kts 104°
2026-04-18 17:09 0.51863 128.73738 36900 ft 457 kts 104°
2026-04-18 17:09 0.46125 128.98521 36888 ft 459 kts 103°
2026-04-18 17:10 0.40447 129.23043 36895 ft 460 kts 103°
2026-04-18 17:10 0.34659 129.48041 36894 ft 463 kts 103°
2026-04-18 17:11 0.28836 129.73184 36895 ft 466 kts 103°
2026-04-18 17:11 0.22990 129.98425 36901 ft 467 kts 103°
2026-04-18 17:12 0.17224 130.23316 36884 ft 467 kts 103°
2026-04-18 17:12 0.11386 130.48514 36896 ft 464 kts 103°
2026-04-18 17:13 0.05623 130.73389 36897 ft 461 kts 103°
2026-04-18 17:13 -0.00140 130.98261 36889 ft 459 kts 103°
2026-04-18 17:14 -0.05712 131.22314 36912 ft 458 kts 103°
2026-04-18 17:14 -0.11445 131.47056 36890 ft 456 kts 103°
2026-04-18 17:15 -0.17163 131.71746 36890 ft 456 kts 103°
2026-04-18 17:15 -0.22880 131.96422 36908 ft 456 kts 103°
2026-04-18 17:16 -0.28506 132.20710 36908 ft 455 kts 103°
2026-04-18 17:16 -0.33252 132.41199 36911 ft 456 kts 103°
2026-04-18 17:17 -0.38970 132.65885 36924 ft 456 kts 103°
2026-04-18 17:17 -0.44700 132.90638 36909 ft 458 kts 103°
2026-04-18 17:18 -0.50360 133.15081 37098 ft 464 kts 103°
2026-04-18 17:18 -0.54188 133.31623 38666 ft 461 kts 103°
2026-04-18 17:18 -0.56150 133.40095 38916 ft 465 kts 103°
2026-04-18 17:19 -0.62847 133.69033 38821 ft 447 kts 103°
2026-04-18 17:19 -0.67441 133.88892 38894 ft 441 kts 103°
2026-04-18 17:20 -0.72979 134.12831 38932 ft 459 kts 103°
2026-04-18 17:20 -0.78697 134.37558 38854 ft 449 kts 104°
2026-04-18 17:21 -0.84244 134.61542 38881 ft 443 kts 104°
2026-04-18 17:21 -0.89889 134.85972 38919 ft 458 kts 104°
2026-04-18 17:22 -0.95478 135.10169 38845 ft 446 kts 104°
2026-04-18 17:22 -1.00985 135.34000 38885 ft 443 kts 104°
2026-04-18 17:23 -1.06631 135.58449 38912 ft 457 kts 104°